Weather Roundup
Issued by NWS Springfield, MO

Home | Current Version | Previous Version | Text Only | Print | Product List | Glossary On
Versions: 1 2 3 4 5 6 7 8 9 10 11 12 13 14 15 16 17 18 19 20 21 22 23 24 25 26 27 28 29 30 31 32 33 34 35 36 37 38 39 40 41 42 43 44 45 46 47 48 49 50
000
NZUS99 KSGF 280407
HRRSGF

HOURLY WEATHER
NATIONAL WEATHER SERVICE SPRINGFIELD MO
1100 PM CDT SUN JUL 27 2014

......SGF CWA......

CITY           SKY/WX    TMP DP  RH WIND       PRES   REMARKS
SPRINGFIELD    CLEAR     72  57  59 N9        30.08R
JOPLIN         CLEAR     69  62  78 CALM      30.10R
WEST PLAINS    CLEAR     75  58  55 NW6       30.05R
ROLLA          CLEAR     73  57  57 N14       30.03R
OSAGE BEACH      N/A     75  57  53 N6        30.06R
BRANSON        CLEAR     72  64  78 NW3       30.09R

......SURROUNDING SGF CWA......

CITY           SKY/WX    TMP DP  RH WIND       PRES   REMARKS
CHANUTE        CLEAR     72  56  57 N6        30.12R
PARSONS        CLEAR     68  61  78 N6        30.12R
COFFEYVILLE    FOG       71  69  93 NW5       30.09R VSB 1/2
EMPORIA        CLEAR     72  55  55 N6        30.15R
GROVE OK       CLEAR     75  68  78 CALM      30.10R
ROGERS AR      CLEAR     73  61  65 W3        30.12R
SILOAM SPRINGS PTCLDY    72  61  68 N3        30.12R
HARRISON AR    CLEAR     74  63  68 W6        30.08R
NEAR YELLVILLE CLEAR     73  63  68 W3        30.03R

......KANSAS AND MISSOURI......

CITY           SKY/WX    TMP DP  RH WIND       PRES   REMARKS
KANSAS CTY INT CLEAR     68  59  73 N9        30.13R
DOWNTOWN KC    CLEAR     75  58  55 N9        30.11R
COLUMBIA       CLEAR     72  57  59 N13       30.05S
SEDALIA        CLEAR     68  60  75 N7        30.08R
ST JOSEPH      CLEAR     66  60  81 N7        30.14R
ST LOUIS       CLEAR     74  59  59 NW8       29.99S
SPIRIT OF STL  CLEAR     72  59  63 NW7       29.99S
KIRKSVILLE     CLEAR     67  57  70 NW7       30.08R
WICHITA        PTCLDY    78  54  43 N9        30.16R
TOPEKA         CLEAR     73  58  59 N8        30.14R
OLATHE         CLEAR     74  58  57 N12       30.12R

......TENNESSEE......

CITY           SKY/WX    TMP DP  RH WIND       PRES   REMARKS
MEMPHIS        PTCLDY    85  77  77 W3        29.95S HX  95
NASHVILLE      CLOUDY    75  73  93 CALM      29.91R

......ARKANSAS.......

CITY           SKY/WX    TMP DP  RH WIND       PRES   REMARKS
FAYETTEVILLE   PTCLDY    72  63  73 CALM      30.10R
FT SMITH       PTCLDY    85  68  56 N10       30.03R
LITTLE ROCK    CLOUDY    85  76  74 SW7       29.97F HX  94

......OKLAHOMA.......

CITY           SKY/WX    TMP DP  RH WIND       PRES   REMARKS
TULSA          MOCLDY    76  68  76 CALM      30.08R
PONCA CITY     CLEAR     72  69  90 CALM      30.13R
MCALESTER      PTCLDY    81  72  74 CALM      30.06R
OKLAHOMA CITY  PTCLDY    81  58  45 NE9       30.12R

......IOWA............

CITY           SKY/WX    TMP DP  RH WIND       PRES   REMARKS
DES MOINES     CLEAR     68  57  68 NW12      30.09R
QUAD CITIES    PTCLDY    70  59  68 NW10      29.96R

......ILLINOIS........

CITY           SKY/WX    TMP DP  RH WIND       PRES   REMARKS
QUINCY         CLEAR     65  58  78 NW7       30.02S
CHICAGO        MOCLDY    65  57  75 N15G22    29.90R



USA.gov is the U.S. government's official web portal to all federal, state and local government web resources and services.